TimeCDT,TemperatureF,Dew PointF,Humidity,Sea Level PressureIn,VisibilityMPH,Wind Direction,Wind SpeedMPH,Gust SpeedMPH,PrecipitationIn,Events,Conditions,WindDirDegrees,DateUTC
12:54 AM,55.0,39.0,55,29.96,10.0,SSE,12.7,-,N/A,,Clear,150,2011-10-01 05:54:00
1:54 AM,55.0,39.0,55,29.94,10.0,SSE,9.2,-,N/A,,Clear,150,2011-10-01 06:54:00
2:54 AM,55.4,39.2,54,29.92,10.0,SSE,10.4,20.7,N/A,,Clear,160,2011-10-01 07:54:00
3:54 AM,54.0,39.0,57,29.92,10.0,SSE,12.7,-,N/A,,Clear,160,2011-10-01 08:54:00
4:54 AM,53.6,39.2,58,29.90,10.0,SSE,13.8,-,N/A,,Clear,160,2011-10-01 09:54:00
5:54 AM,53.1,39.0,59,29.90,10.0,SSE,13.8,-,N/A,,Clear,150,2011-10-01 10:54:00
6:54 AM,53.1,39.0,59,29.90,10.0,South,8.1,-,N/A,,Clear,170,2011-10-01 11:54:00
7:54 AM,53.1,39.0,59,29.91,10.0,South,13.8,-,N/A,,Clear,180,2011-10-01 12:54:00
8:54 AM,55.4,39.2,54,29.90,10.0,South,18.4,-,N/A,,Clear,170,2011-10-01 13:54:00
9:54 AM,59.0,41.0,51,29.92,10.0,South,12.7,-,N/A,,Clear,190,2011-10-01 14:54:00
10:54 AM,62.1,41.0,46,29.92,10.0,SSW,11.5,-,N/A,,Clear,200,2011-10-01 15:54:00
11:54 AM,66.0,43.0,43,29.91,10.0,South,6.9,-,N/A,,Clear,190,2011-10-01 16:54:00
12:54 PM,69.8,44.6,40,29.92,10.0,SSW,4.6,-,N/A,,Clear,200,2011-10-01 17:54:00
1:54 PM,75.0,44.1,33,29.90,10.0,South,4.6,-,N/A,,Clear,180,2011-10-01 18:54:00
2:54 PM,78.1,43.0,29,29.89,10.0,SSE,3.5,-,N/A,,Clear,160,2011-10-01 19:54:00
3:54 PM,81.0,44.1,27,29.89,10.0,Calm,Calm,-,N/A,,Clear,0,2011-10-01 20:54:00
4:54 PM,81.0,46.9,30,29.89,10.0,SSE,5.8,-,N/A,,Clear,160,2011-10-01 21:54:00
5:54 PM,77.0,53.1,43,29.90,10.0,East,6.9,-,N/A,,Clear,100,2011-10-01 22:54:00
6:54 PM,73.4,51.8,47,29.91,9.0,SSE,5.8,-,N/A,,Clear,150,2011-10-01 23:54:00
7:54 PM,70.0,48.0,46,29.91,10.0,SSE,4.6,-,N/A,,Clear,160,2011-10-02 00:54:00
8:54 PM,64.9,48.9,56,29.92,10.0,SE,4.6,-,N/A,,Clear,130,2011-10-02 01:54:00
9:54 PM,63.0,46.9,56,29.93,10.0,Calm,Calm,-,N/A,,Clear,0,2011-10-02 02:54:00
10:54 PM,60.1,46.9,62,29.93,10.0,Calm,Calm,-,N/A,,Clear,0,2011-10-02 03:54:00
11:54 PM,55.0,46.9,74,29.95,10.0,NNW,3.5,-,N/A,,Clear,340,2011-10-02 04:54:00